Tracking 35280 objects as of 7-Sep-2026
HD Live streaming from Space Station
objects crossing your sky now

SPACEBEE-152


SPACEBEE-152 is no longer on orbit


NORAD ID: 52414
Int'l Code: 2022-047W
Launch date: May 2, 2022
Source: United States (US)
Launch site: Rocket Lab Launch Complex (RLLC)
Decay date: 2024-05-02
Your satellite tracking list
Your tracking list is empty




NASA's NSSDC Master Catalog

Two Line Element Set (TLE):
1 52414U 22047W   24122.97527351  .19870257  28434-5  29006-3 0  9996
2 52414  97.3530 217.8156 0026566 321.0232  38.9155 16.46337520113051
Source of the keplerian elements: AFSPC